Tracking 19625 objects as of 26-May-2019
HD Live streaming from Space Station
objects crossing your sky now
Watch Starlink satellites crossing your sky!

NSIGHT-1

Track NSIGHT-1 now!
10-day predictions
NSIGHT-1 is classified as:


NORAD ID: 42726
Int'l Code: 1998-067MF
Perigee: 360.2 km
Apogee: 369.2 km
Inclination: 51.6 °
Period: 91.7 minutes
Semi major axis: 6735 km
RCS: Unknown
Launch date: November 20, 1998
Source: South Africa (SAFR)
Launch site: TYURATAM MISSILE AND SPACE COMPLEX (TTMTR)

Uplink (MHz):
Downlink (MHz): 435.900//2405.000
Beacon (MHz):
Mode: 9600bps GMSK
Call sign: ON02AZ
Status: Active

aabbcc
Your satellite tracking list
Your tracking list is empty




NASA's NSSDC Master Catalog

Two Line Element Set (TLE):
1 42726U 98067MF  19145.24602044  .00014137  00000-0  11742-3 0  9997
2 42726  51.6392  73.6640 0006657  85.7034  67.4547 15.70461023113979
Source of the keplerian elements: AMSAT